Location: Carnoy
(49.9849°N, 2.7558°E)
Time: 16:19:02
(UTC+00:00)

ARGOS - Pass Details

Date: 24 January 2020
Orbit: 821 x 834 km, 98.5° (Epoch: 20 February)

Event Time Altitude Azimuth Distance (km) Brightness Sun altitude
Exits shadow 19:43:30 48° 333° (NNW) 1,077 3.8 -30.9°
Drops below altitude 10° 19:47:23 10° 343° (NNW) 2,445 5.8 -31.6°
Sets 19:49:45 0° 345° (NNW) 3,384 6.6 -31.9°
